Location: *
(49.0044°N, 9.5056°E)
Time: 08:02:42
(UTC+00:00)

Meteor 2-5 Rocket - Pass Details

Date: 22 September 2019
Orbit: 834 x 911 km, 81.2° (Epoch: 14 October)

Event Time Altitude Azimuth Distance (km) Brightness Sun altitude
Rises 19:25:21 0° 345° (NNW) 3,496 7.5 -20.6°
Reaches altitude 10° 19:27:49 10° 341° (NNW) 2,563 6.8 -20.9°
Maximum altitude 19:33:32 59° 264° (W) 1,038 4.3 -21.8°
Enters shadow 19:39:17 10° 187° (S) 2,577 6.0 -22.6°
